| time (UTC) | temp C | wind direction | speed KPH | gust KPH | rain 1hr cm | rain 24hr cm | rain mn cm | humidity % | barometer mb |
| 20260504050017 | 5 | 0.0 | 0.0 | 0.00 | 0.00 | 0.00 | 78 | 1013.8 | |
| 20260504043017 | 5 | 0.0 | 0.0 | 0.00 | 0.00 | 0.00 | 77 | 1013.7 | |
| 20260504040017 | 6 | 0.0 | 0.0 | 0.00 | 0.00 | 0.00 | 75 | 1013.4 | |
| 20260504033017 | 6 | 0.0 | 0.0 | 0.00 | 0.00 | 0.00 | 72 | 1013.2 | |
| 20260504030017 | 7 | 0.0 | 0.0 | 0.00 | 0.00 | 0.00 | 69 | 1013.0 | |
| 20260504023017 | 7 | 0.0 | 0.0 | 0.00 | 0.00 | 0.00 | 65 | 1013.0 | |
| 20260504020018 | 8 | 0.0 | 0.0 | 0.00 | 0.00 | 0.00 | 62 | 1013.0 | |
| 20260504013017 | 10 | 0.0 | 0.0 | 0.00 | 0.00 | 0.00 | 52 | 1012.9 | |
| 20260504010017 | 11 | 0.0 | 0.0 | 0.00 | 0.00 | 0.00 | 46 | 1012.6 | |
| 20260504003017 | 12 | 0.0 | 0.0 | 0.00 | 0.00 | 0.00 | 45 | 1012.3 | |
| 20260504000017 | 13 | 0.0 | 22.5 | 0.00 | 0.00 | 0.00 | 43 | 1011.9 | |
| 20260503233017 | 15 | 0.0 | 16.1 | 0.00 | 0.00 | 0.00 | 38 | 1011.7 | |
| 20260503230017 | 15 | 248 | 1.6 | 20.9 | 0.00 | 0.00 | 0.00 | 37 | 1011.5 |
| 20260503223017 | 15 | 248 | 1.6 | 14.5 | 0.00 | 0.00 | 0.00 | 37 | 1011.4 |
| 20260503220017 | 15 | 248 | 3.2 | 19.3 | 0.00 | 0.00 | 0.00 | 36 | 1011.6 |
| 20260503213017 | 16 | 248 | 3.2 | 22.5 | 0.00 | 0.00 | 0.00 | 35 | 1011.4 |
| 20260503210018 | 16 | 248 | 3.2 | 22.5 | 0.00 | 0.00 | 0.00 | 36 | 1011.4 |
| 20260503203037 | 15 | 248 | 3.2 | 25.7 | 0.00 | 0.00 | 0.00 | 32 | 1011.5 |
| 20260503200018 | 15 | 270 | 8.0 | 25.7 | 0.00 | 0.00 | 0.00 | 34 | 1011.8 |
| 20260503193017 | 15 | 270 | 4.8 | 25.7 | 0.00 | 0.00 | 0.00 | 36 | 1012.2 |
| 20260503190017 | 14 | 270 | 3.2 | 35.4 | 0.00 | 0.00 | 0.00 | 39 | 1012.4 |
| 20260503183017 | 13 | 270 | 3.2 | 25.7 | 0.00 | 0.00 | 0.00 | 35 | 1012.9 |
| 20260503180017 | 13 | 270 | 4.8 | 24.1 | 0.00 | 0.00 | 0.00 | 43 | 1012.9 |
| 20260503173017 | 12 | 270 | 3.2 | 25.7 | 0.00 | 0.00 | 0.00 | 39 | 1013.1 |